| time (UTC) | temp F | wind direction | speed MPH | gust MPH | rain 1hr in | rain 24hr in | rain mn in | humidity % | barometer mb |
| 20260504042028 | 45 | 360 | 4.0 | 9.0 | 0.00 | 0.00 | 0.00 | 58 | 1013.0 |
| 20260504041547 | 45 | 360 | 4.0 | 9.0 | 0.00 | 0.00 | 0.00 | 59 | 1012.9 |
| 20260504041029 | 45 | 251 | 4.0 | 9.0 | 0.00 | 0.00 | 0.00 | 59 | 1012.9 |
| 20260504040529 | 45 | 242 | 5.0 | 9.0 | 0.00 | 0.00 | 0.00 | 58 | 1013.1 |
| 20260504040046 | 45 | 243 | 4.0 | 8.0 | 0.00 | 0.00 | 0.00 | 58 | 1013.0 |
| 20260504035532 | 46 | 253 | 3.0 | 8.0 | 0.00 | 0.00 | 0.00 | 58 | 1012.9 |
| 20260504035029 | 46 | 251 | 4.0 | 9.0 | 0.00 | 0.00 | 0.00 | 57 | 1012.8 |
| 20260504034553 | 46 | 252 | 4.0 | 9.0 | 0.00 | 0.00 | 0.00 | 57 | 1012.8 |
| 20260504034028 | 46 | 360 | 4.0 | 11.0 | 0.00 | 0.00 | 0.00 | 57 | 1012.8 |
| 20260504033528 | 46 | 254 | 5.0 | 11.0 | 0.00 | 0.00 | 0.00 | 57 | 1012.9 |
| 20260504033051 | 46 | 360 | 3.0 | 10.0 | 0.00 | 0.00 | 0.00 | 57 | 1012.9 |
| 20260504032610 | 46 | 263 | 3.0 | 10.0 | 0.00 | 0.00 | 0.00 | 58 | 1012.9 |
| 20260504032029 | 46 | 360 | 4.0 | 9.0 | 0.00 | 0.00 | 0.00 | 58 | 1012.9 |
| 20260504031600 | 46 | 360 | 2.0 | 6.0 | 0.00 | 0.00 | 0.00 | 58 | 1012.8 |
| 20260504031028 | 46 | 360 | 3.0 | 7.0 | 0.00 | 0.00 | 0.00 | 58 | 1012.8 |
| 20260504030528 | 46 | 360 | 3.0 | 7.0 | 0.00 | 0.00 | 0.00 | 58 | 1012.8 |
| 20260504030109 | 46 | 360 | 2.0 | 7.0 | 0.00 | 0.00 | 0.00 | 58 | 1012.8 |
| 20260504025528 | 46 | 267 | 2.0 | 8.0 | 0.00 | 0.00 | 0.00 | 58 | 1012.8 |
| 20260504025028 | 46 | 360 | 3.0 | 8.0 | 0.00 | 0.00 | 0.00 | 57 | 1012.8 |
| 20260504024550 | 46 | 360 | 2.0 | 6.0 | 0.00 | 0.00 | 0.00 | 57 | 1012.9 |
| 20260504024026 | 46 | 360 | 2.0 | 6.0 | 0.00 | 0.00 | 0.00 | 57 | 1013.0 |
| 20260504023530 | 46 | 254 | 2.0 | 5.0 | 0.00 | 0.00 | 0.00 | 57 | 1013.0 |
| 20260504023041 | 46 | 255 | 2.0 | 5.0 | 0.00 | 0.00 | 0.00 | 56 | 1013.0 |
| 20260504022532 | 47 | 360 | 2.0 | 5.0 | 0.00 | 0.00 | 0.00 | 56 | 1013.0 |
| 20260504022030 | 47 | 254 | 2.0 | 7.0 | 0.00 | 0.00 | 0.00 | 56 | 1013.0 |
| 20260504021548 | 47 | 254 | 3.0 | 7.0 | 0.00 | 0.00 | 0.00 | 55 | 1012.8 |
| 20260504021028 | 47 | 253 | 4.0 | 7.0 | 0.00 | 0.00 | 0.00 | 55 | 1013.0 |
| 20260504020529 | 47 | 252 | 3.0 | 7.0 | 0.00 | 0.00 | 0.00 | 55 | 1012.9 |
| 20260504020048 | 47 | 253 | 4.0 | 7.0 | 0.00 | 0.00 | 0.00 | 55 | 1012.9 |
| 20260504015527 | 47 | 254 | 3.0 | 7.0 | 0.00 | 0.00 | 0.00 | 55 | 1012.9 |
| 20260504015035 | 47 | 253 | 3.0 | 7.0 | 0.00 | 0.00 | 0.00 | 54 | 1012.9 |
| 20260504014549 | 48 | 253 | 3.0 | 7.0 | 0.00 | 0.00 | 0.00 | 54 | 1012.9 |
| 20260504014030 | 48 | 254 | 3.0 | 7.0 | 0.00 | 0.00 | 0.00 | 55 | 1012.8 |
| 20260504013527 | 48 | 254 | 3.0 | 7.0 | 0.00 | 0.00 | 0.00 | 54 | 1012.9 |
| 20260504013050 | 48 | 254 | 3.0 | 6.0 | 0.00 | 0.00 | 0.00 | 54 | 1012.8 |
| 20260504012527 | 48 | 255 | 2.0 | 5.0 | 0.00 | 0.00 | 0.00 | 53 | 1012.8 |
| 20260504012027 | 49 | 255 | 2.0 | 4.0 | 0.00 | 0.00 | 0.00 | 51 | 1012.8 |
| 20260504011545 | 49 | 360 | 1.0 | 4.0 | 0.00 | 0.00 | 0.00 | 50 | 1012.7 |
| 20260504011032 | 50 | 360 | 2.0 | 4.0 | 0.00 | 0.00 | 0.00 | 50 | 1012.7 |
| 20260504010533 | 50 | 360 | 1.0 | 5.0 | 0.00 | 0.00 | 0.00 | 49 | 1012.7 |
| 20260504010043 | 51 | 360 | 2.0 | 6.0 | 0.00 | 0.00 | 0.00 | 48 | 1012.8 |
| 20260504005530 | 51 | 360 | 2.0 | 6.0 | 0.00 | 0.00 | 0.00 | 47 | 1012.7 |
| 20260504005029 | 51 | 360 | 3.0 | 6.0 | 0.00 | 0.00 | 0.00 | 46 | 1012.8 |
| 20260504004541 | 51 | 360 | 2.0 | 7.0 | 0.00 | 0.00 | 0.00 | 46 | 1012.7 |
| 20260504004028 | 52 | 263 | 3.0 | 8.0 | 0.00 | 0.00 | 0.00 | 45 | 1012.7 |
| 20260504003530 | 52 | 360 | 4.0 | 9.0 | 0.00 | 0.00 | 0.00 | 44 | 1012.7 |
| 20260504003047 | 52 | 360 | 2.0 | 9.0 | 0.00 | 0.00 | 0.00 | 44 | 1012.5 |
| 20260504002531 | 53 | 360 | 1.0 | 6.0 | 0.00 | 0.00 | 0.00 | 44 | 1012.4 |
| 20260504002030 | 53 | 360 | 2.0 | 9.0 | 0.00 | 0.00 | 0.00 | 43 | 1012.4 |
| 20260504001550 | 53 | 360 | 4.0 | 12.0 | 0.00 | 0.00 | 0.00 | 43 | 1012.4 |
| 20260504001030 | 54 | 255 | 6.0 | 12.0 | 0.00 | 0.00 | 0.00 | 42 | 1012.4 |
| 20260504000532 | 54 | 283 | 4.0 | 14.0 | 0.00 | 0.00 | 0.00 | 42 | 1012.4 |
| 20260504000125 | 54 | 360 | 6.0 | 14.0 | 0.00 | 0.00 | 0.00 | 42 | 1012.3 |
| 20260503235530 | 54 | 266 | 6.0 | 12.0 | 0.00 | 0.00 | 0.00 | 42 | 1012.3 |
| 20260503235032 | 54 | 360 | 8.0 | 12.0 | 0.00 | 0.00 | 0.00 | 41 | 1012.2 |
| 20260503234552 | 55 | 360 | 4.0 | 11.0 | 0.00 | 0.00 | 0.00 | 41 | 1012.2 |
| 20260503234031 | 55 | 279 | 2.0 | 14.0 | 0.00 | 0.00 | 0.00 | 40 | 1012.3 |
| 20260503233532 | 55 | 360 | 6.0 | 14.0 | 0.00 | 0.00 | 0.00 | 40 | 1012.2 |
| 20260503233048 | 56 | 360 | 6.0 | 18.0 | 0.00 | 0.00 | 0.00 | 39 | 1012.3 |
| 20260503232532 | 56 | 360 | 8.0 | 18.0 | 0.00 | 0.00 | 0.00 | 38 | 1012.2 |
| 20260503232032 | 56 | 360 | 10.0 | 18.0 | 0.00 | 0.00 | 0.00 | 39 | 1012.1 |
| 20260503231548 | 56 | 360 | 8.0 | 18.0 | 0.00 | 0.00 | 0.00 | 39 | 1012.2 |
| 20260503231031 | 56 | 360 | 7.0 | 17.0 | 0.00 | 0.00 | 0.00 | 39 | 1012.2 |
| 20260503230533 | 56 | 360 | 9.0 | 18.0 | 0.00 | 0.00 | 0.00 | 38 | 1012.2 |
| 20260503230053 | 56 | 360 | 10.0 | 18.0 | 0.00 | 0.00 | 0.00 | 39 | 1012.1 |
| 20260503225528 | 56 | 360 | 8.0 | 17.0 | 0.00 | 0.00 | 0.00 | 38 | 1012.2 |
| 20260503225029 | 56 | 360 | 7.0 | 21.0 | 0.00 | 0.00 | 0.00 | 38 | 1012.1 |
| 20260503224547 | 56 | 331 | 10.0 | 21.0 | 0.00 | 0.00 | 0.00 | 38 | 1012.2 |
| 20260503224034 | 57 | 360 | 10.0 | 20.0 | 0.00 | 0.00 | 0.00 | 38 | 1012.1 |
| 20260503223531 | 57 | 360 | 3.0 | 14.0 | 0.00 | 0.00 | 0.00 | 41 | 1012.2 |
| 20260503223048 | 56 | 360 | 5.0 | 17.0 | 0.00 | 0.00 | 0.00 | 40 | 1012.2 |
| 20260503222530 | 56 | 360 | 8.0 | 17.0 | 0.00 | 0.00 | 0.00 | 39 | 1012.1 |
| 20260503222030 | 56 | 360 | 7.0 | 15.0 | 0.00 | 0.00 | 0.00 | 39 | 1012.1 |
| 20260503221546 | 57 | 360 | 8.0 | 16.0 | 0.00 | 0.00 | 0.00 | 38 | 1012.2 |
| 20260503221030 | 57 | 360 | 7.0 | 21.0 | 0.00 | 0.00 | 0.00 | 39 | 1012.2 |
| 20260503220531 | 57 | 360 | 11.0 | 22.0 | 0.00 | 0.00 | 0.00 | 40 | 1012.2 |
| 20260503220045 | 56 | 360 | 12.0 | 22.0 | 0.00 | 0.00 | 0.00 | 39 | 1012.2 |
| 20260503215532 | 56 | 360 | 9.0 | 17.0 | 0.00 | 0.00 | 0.00 | 39 | 1012.2 |
| 20260503215033 | 56 | 360 | 6.0 | 20.0 | 0.00 | 0.00 | 0.00 | 38 | 1012.2 |
| 20260503214548 | 56 | 360 | 10.0 | 20.0 | 0.00 | 0.00 | 0.00 | 39 | 1012.2 |
| 20260503214029 | 56 | 360 | 12.0 | 20.0 | 0.00 | 0.00 | 0.00 | 37 | 1012.2 |
| 20260503213530 | 56 | 360 | 8.0 | 19.0 | 0.00 | 0.00 | 0.00 | 37 | 1012.2 |
| 20260503213048 | 56 | 360 | 9.0 | 20.0 | 0.00 | 0.00 | 0.00 | 37 | 1012.2 |
| 20260503212534 | 56 | 360 | 9.0 | 20.0 | 0.00 | 0.00 | 0.00 | 37 | 1012.1 |
| 20260503212030 | 56 | 360 | 10.0 | 19.0 | 0.00 | 0.00 | 0.00 | 37 | 1012.1 |
| 20260503211548 | 57 | 360 | 10.0 | 20.0 | 0.00 | 0.00 | 0.00 | 37 | 1012.1 |
| 20260503211031 | 57 | 360 | 10.0 | 20.0 | 0.00 | 0.00 | 0.00 | 37 | 1012.1 |
| 20260503210530 | 57 | 360 | 7.0 | 17.0 | 0.00 | 0.00 | 0.00 | 38 | 1012.1 |
| 20260503210047 | 57 | 360 | 10.0 | 17.0 | 0.00 | 0.00 | 0.00 | 37 | 1012.2 |
| 20260503205530 | 57 | 360 | 9.0 | 17.0 | 0.00 | 0.00 | 0.00 | 37 | 1012.0 |
| 20260503205030 | 58 | 360 | 10.0 | 24.0 | 0.00 | 0.00 | 0.00 | 37 | 1012.1 |
| 20260503204546 | 58 | 360 | 13.0 | 24.0 | 0.00 | 0.00 | 0.00 | 38 | 1012.0 |
| 20260503204031 | 57 | 360 | 11.0 | 22.0 | 0.00 | 0.00 | 0.00 | 37 | 1012.1 |
| 20260503203534 | 57 | 360 | 10.0 | 22.0 | 0.00 | 0.00 | 0.00 | 39 | 1012.2 |
| 20260503203045 | 58 | 51 | 13.0 | 22.0 | 0.00 | 0.00 | 0.00 | 35 | 1012.3 |
| 20260503202530 | 57 | 360 | 7.0 | 16.0 | 0.00 | 0.00 | 0.00 | 37 | 1012.2 |
| 20260503202034 | 57 | 360 | 11.0 | 24.0 | 0.00 | 0.00 | 0.00 | 37 | 1012.3 |
| 20260503201549 | 57 | 360 | 12.0 | 24.0 | 0.00 | 0.00 | 0.00 | 38 | 1012.4 |
| 20260503201029 | 57 | 360 | 8.0 | 21.0 | 0.00 | 0.00 | 0.00 | 39 | 1012.3 |
| 20260503200531 | 57 | 360 | 12.0 | 21.0 | 0.00 | 0.00 | 0.00 | 38 | 1012.3 |
| 20260503200052 | 57 | 360 | 11.0 | 24.0 | 0.00 | 0.00 | 0.00 | 36 | 1012.4 |
| 20260503195531 | 57 | 105 | 12.0 | 24.0 | 0.00 | 0.00 | 0.00 | 37 | 1012.4 |
| 20260503195029 | 57 | 360 | 8.0 | 21.0 | 0.00 | 0.00 | 0.00 | 36 | 1012.5 |
| 20260503194552 | 57 | 360 | 12.0 | 20.0 | 0.00 | 0.00 | 0.00 | 36 | 1012.7 |
| 20260503194030 | 57 | 344 | 6.0 | 21.0 | 0.00 | 0.00 | 0.00 | 37 | 1012.7 |
| 20260503193534 | 57 | 360 | 12.0 | 24.0 | 0.00 | 0.00 | 0.00 | 40 | 1012.7 |
| 20260503193046 | 57 | 179 | 11.0 | 24.0 | 0.00 | 0.00 | 0.00 | 38 | 1012.7 |
| 20260503192530 | 57 | 360 | 6.0 | 20.0 | 0.00 | 0.00 | 0.00 | 39 | 1012.8 |
| 20260503192032 | 57 | 11 | 6.0 | 28.0 | 0.00 | 0.00 | 0.00 | 37 | 1012.9 |
| 20260503191546 | 56 | 360 | 11.0 | 28.0 | 0.00 | 0.00 | 0.00 | 36 | 1012.9 |
| 20260503191030 | 56 | 360 | 16.0 | 28.0 | 0.00 | 0.00 | 0.00 | 38 | 1013.0 |
| 20260503190529 | 56 | 360 | 14.0 | 21.0 | 0.00 | 0.00 | 0.00 | 39 | 1012.9 |
| 20260503190045 | 56 | 360 | 11.0 | 25.0 | 0.00 | 0.00 | 0.00 | 36 | 1013.0 |
| 20260503185530 | 56 | 16 | 7.0 | 26.0 | 0.00 | 0.00 | 0.00 | 40 | 1013.1 |
| 20260503185031 | 56 | 360 | 14.0 | 26.0 | 0.00 | 0.00 | 0.00 | 41 | 1013.1 |
| 20260503184558 | 55 | 360 | 11.0 | 18.0 | 0.00 | 0.00 | 0.00 | 39 | 1013.1 |
| 20260503184030 | 55 | 360 | 10.0 | 18.0 | 0.00 | 0.00 | 0.00 | 40 | 1013.2 |
| 20260503183531 | 55 | 360 | 8.0 | 24.0 | 0.00 | 0.00 | 0.00 | 40 | 1013.3 |
| 20260503183051 | 55 | 360 | 9.0 | 24.0 | 0.00 | 0.00 | 0.00 | 40 | 1013.4 |
| 20260503182528 | 55 | 360 | 14.0 | 24.0 | 0.00 | 0.00 | 0.00 | 40 | 1013.4 |
| 20260503182031 | 55 | 279 | 3.0 | 24.0 | 0.00 | 0.00 | 0.00 | 41 | 1013.4 |
| 20260503181554 | 55 | 360 | 8.0 | 24.0 | 0.00 | 0.00 | 0.00 | 39 | 1013.4 |
| 20260503181033 | 55 | 360 | 12.0 | 35.0 | 0.00 | 0.00 | 0.00 | 41 | 1013.4 |
| 20260503180532 | 55 | 64 | 18.0 | 35.0 | 0.00 | 0.00 | 0.00 | 38 | 1013.4 |
| 20260503180052 | 55 | 360 | 8.0 | 21.0 | 0.00 | 0.00 | 0.00 | 41 | 1013.5 |
| 20260503175530 | 55 | 360 | 8.0 | 14.0 | 0.00 | 0.00 | 0.00 | 41 | 1013.6 |
| 20260503175032 | 54 | 360 | 7.0 | 20.0 | 0.00 | 0.00 | 0.00 | 44 | 1013.4 |
| 20260503174543 | 53 | 360 | 10.0 | 21.0 | 0.00 | 0.00 | 0.00 | 42 | 1013.7 |
| 20260503174032 | 53 | 360 | 11.0 | 21.0 | 0.00 | 0.00 | 0.00 | 41 | 1013.6 |
| 20260503173530 | 53 | 360 | 8.0 | 21.0 | 0.00 | 0.00 | 0.00 | 41 | 1013.7 |
| 20260503173045 | 53 | 360 | 11.0 | 21.0 | 0.00 | 0.00 | 0.00 | 41 | 1013.7 |
| 20260503172529 | 53 | 360 | 8.0 | 22.0 | 0.00 | 0.00 | 0.00 | 39 | 1013.8 |
| 20260503172032 | 54 | 360 | 10.0 | 22.0 | 0.00 | 0.00 | 0.00 | 39 | 1013.8 |
| 20260503171604 | 54 | 360 | 8.0 | 24.0 | 0.00 | 0.00 | 0.00 | 40 | 1013.8 |
| 20260503171031 | 54 | 281 | 11.0 | 24.0 | 0.00 | 0.00 | 0.00 | 41 | 1013.7 |
| 20260503170531 | 53 | 360 | 12.0 | 22.0 | 0.00 | 0.00 | 0.00 | 41 | 1013.6 |
| 20260503150529 | 48 | 360 | 11.0 | 19.0 | 0.00 | 0.00 | 0.00 | 49 | 1014.9 |
| 20260503131032 | 43 | 283 | 6.0 | 16.0 | 0.00 | 0.00 | 0.00 | 60 | 1015.5 |
| 20260503130530 | 43 | 360 | 8.0 | 16.0 | 0.00 | 0.00 | 0.00 | 60 | 1015.6 |
| 20260503110531 | 36 | 360 | 3.0 | 8.0 | 0.00 | 0.00 | 0.00 | 72 | 1015.0 |
| 20260503081550 | 37 | 360 | 5.0 | 12.0 | 0.00 | 0.00 | 0.00 | 69 | 1013.7 |
| 20260503081030 | 37 | 360 | 5.0 | 9.0 | 0.00 | 0.00 | 0.00 | 69 | 1013.7 |
| 20260503080530 | 37 | 360 | 4.0 | 10.0 | 0.00 | 0.00 | 0.00 | 69 | 1013.6 |
| 20260503072530 | 37 | 360 | 3.0 | 10.0 | 0.00 | 0.00 | 0.00 | 67 | 1013.3 |
| 20260503072029 | 37 | 360 | 5.0 | 9.0 | 0.00 | 0.00 | 0.00 | 67 | 1013.3 |
| 20260503071604 | 37 | 360 | 3.0 | 9.0 | 0.00 | 0.00 | 0.00 | 67 | 1013.4 |
| 20260503071029 | 37 | 360 | 3.0 | 8.0 | 0.00 | 0.00 | 0.00 | 67 | 1013.4 |
| 20260503070529 | 37 | 360 | 3.0 | 7.0 | 0.00 | 0.00 | 0.00 | 67 | 1013.3 |
| 20260503055030 | 39 | 20 | 3.0 | 14.0 | 0.00 | 0.03 | 0.00 | 63 | 1013.4 |
| 20260503054557 | 39 | 360 | 4.0 | 14.0 | 0.00 | 0.03 | 0.00 | 63 | 1013.4 |
| 20260503054029 | 39 | 360 | 4.0 | 9.0 | 0.00 | 0.03 | 0.00 | 63 | 1013.5 |
| 20260503053528 | 39 | 360 | 4.0 | 8.0 | 0.00 | 0.03 | 0.00 | 63 | 1013.5 |
| 20260503053045 | 39 | 360 | 4.0 | 8.0 | 0.00 | 0.03 | 0.00 | 63 | 1013.5 |
| 20260503052529 | 40 | 360 | 4.0 | 9.0 | 0.00 | 0.03 | 0.00 | 62 | 1013.5 |
| 20260503052030 | 40 | 351 | 3.0 | 9.0 | 0.00 | 0.03 | 0.00 | 62 | 1013.5 |
| 20260503051548 | 40 | 360 | 3.0 | 6.0 | 0.00 | 0.03 | 0.00 | 62 | 1013.6 |
| 20260503051028 | 40 | 360 | 1.0 | 10.0 | 0.00 | 0.03 | 0.00 | 62 | 1013.6 |
| 20260503050528 | 40 | 350 | 3.0 | 10.0 | 0.00 | 0.03 | 0.00 | 62 | 1013.6 |
| 20260503050050 | 40 | 360 | 2.0 | 6.0 | 0.00 | 0.03 | 0.00 | 62 | 1013.6 |
| 20260503045529 | 40 | 360 | 3.0 | 6.0 | 0.00 | 0.07 | 0.00 | 63 | 1013.7 |
| 20260503045032 | 40 | 0 | 0.0 | 3.0 | 0.00 | 0.07 | 0.00 | 63 | 1013.8 |
| 20260503044553 | 40 | 360 | 0.0 | 3.0 | 0.00 | 0.07 | 0.00 | 63 | 1013.7 |
| 20260503044031 | 40 | 0 | 0.0 | 5.0 | 0.00 | 0.07 | 0.00 | 63 | 1013.7 |
| 20260503043530 | 40 | 0 | 2.0 | 5.0 | 0.00 | 0.07 | 0.00 | 63 | 1013.8 |
| 20260503043050 | 40 | 37 | 1.0 | 4.0 | 0.00 | 0.07 | 0.00 | 63 | 1013.8 |
| 20260503042530 | 40 | 0 | 0.0 | 2.0 | 0.00 | 0.07 | 0.00 | 63 | 1013.9 |